[[{"header":{"parameterUnit":"m.s-1","parameterCategory":1,"la1":30.2991,"la2":30.254,"lo1":-89.0895,"lo2":-89.0444,"dy":0.0017,"dx":0.0017,"nx":28,"ny":28,"refTime":"2025-04-18T03:00:00:Z","depth":0,"parameterNumber":2,"parameterNumberName":"U-component_of_WINDS"},"data":[0,0,0,0,0,0,0,0,0,0,0,0,0,0,0,0,0,0,0,0,0,0,0,0,0,0,0,0,0,0,0,0,0,0,0,0,0,0,0,0,0,0,0,0,0,0,0,0,0,0,0,0,0,0,0,0,0,0,-3.7069,-3.7071,0,-3.7244,-3.7246,-3.7248,-3.7271,-3.7269,-3.7267,-3.7266,-3.7446,-3.7452,-3.7459,0,0,0,0,0,0,0,0,0,0,0,0,0,-3.6757,-3.6763,-3.7069,-3.7071,-3.7073,-3.7244,-3.7246,-3.7249,-3.7271,-3.7269,-3.7267,-3.7265,-3.7444,-3.7452,-3.7459,0,0,0,0,0,0,0,0,0,0,0,0,0,-3.6908,-3.6764,-3.7069,-3.7105,-3.711,-3.7243,-3.7246,-3.7249,-3.7272,-3.7269,-3.7267,-3.7264,-3.7442,-3.7451,-3.746,-3.7569,0,0,-3.7489,-3.7494,0,0,0,0,0,0,0,0,-3.69,-3.692,-3.7098,-3.7103,-3.7109,-3.7233,-3.7202,-3.7357,-3.7272,-3.721,-3.7266,-3.7263,-3.7377,-3.7392,-3.743,-3.7578,-3.7586,-3.749,-3.7496,-3.75,-3.7503,0,0,0,0,0,0,0,-3.6889,-3.6912,-3.7138,-3.71,-3.7107,-3.7114,-3.7132,-3.7232,-3.7306,-3.7216,-3.7218,-3.7238,-3.738,-3.7421,-3.7435,-3.7588,-3.749,-3.7498,-3.7504,-3.7508,-3.7836,-3.7839,0,0,0,0,0,0,-3.6872,-3.6903,-3.7133,-3.7144,-3.6996,-3.7121,-3.7142,-3.7196,-3.7305,-3.7319,-3.724,-3.7238,-3.7406,-3.7424,-3.7441,-3.7577,-3.75,-3.7509,-3.7514,-3.7833,-3.7837,-3.784,0,0,0,0,0,0,-3.6865,-3.6892,-3.7126,-3.7024,-3.7054,-3.7129,-3.7189,-3.72,-3.7242,-3.7323,-3.7337,-3.7268,-3.7405,-3.7428,-3.7538,-3.7584,-3.7513,-3.7522,-3.783,-3.7834,-3.7838,-3.7849,0,0,0,0,0,0,-3.6856,-3.6889,-3.6931,-3.7025,-3.706,-3.7218,-3.7192,-3.7206,-3.7258,-3.7258,-3.7353,-3.7367,-3.7405,-3.7523,-3.7547,-3.7595,-3.7529,-3.7826,-3.7832,-3.7837,-3.7845,-3.7853,-3.786,0,0,0,0,0,-3.6845,-3.6927,-3.6933,-3.696,-3.7113,-3.7221,-3.7241,-3.7282,-3.7261,-3.7304,-3.7357,-3.7364,-3.7575,-3.7534,-3.7561,-3.7613,-3.7823,-3.783,-3.7836,-3.7841,-3.7851,-3.786,0,0,0,0,0,0,-3.6836,-3.694,-3.6947,-3.7062,-3.7133,-3.7225,-3.728,-3.7292,-3.737,-3.7366,-3.7415,-3.7436,-3.7544,-3.759,-3.7543,-3.7726,-3.7697,-3.771,-3.7691,-3.7702,-3.7709,-3.7696,-3.7537,0,0,0,0,0,-3.6847,-3.6926,-3.7012,-3.7105,-3.714,-3.7204,-3.7253,-3.7279,-3.7354,-3.7384,-3.7444,-3.7517,-3.76,-3.7654,-3.7734,-3.7852,-3.7874,-3.7901,-3.7909,-3.7915,-3.7925,-3.7991,-3.8005,-3.7862,-3.7862,-3.7862,0,0,-3.6872,-3.6938,-3.6984,-3.7105,-3.7163,-3.7244,-3.7229,-3.7315,-3.7376,-3.7397,-3.7504,-3.7552,-3.7636,-3.7751,-3.7804,-3.7792,-3.7969,-3.7923,-3.7927,-3.7934,-3.8,-3.8013,-3.8025,-3.7867,-3.7866,-3.7865,0,0,-3.6957,-3.7015,-3.7099,-3.7158,-3.7245,-3.7288,-3.7308,-3.7399,-3.7431,-3.754,-3.7558,-3.7631,-3.7773,-3.7833,-3.7882,-3.7993,-3.8002,-3.8018,-3.8058,-3.8123,-3.8134,-3.8144,-3.8184,-3.8198,-3.8028,-3.8028,-3.8028,0,-3.6976,-3.7098,-3.7141,-3.7227,-3.728,-3.7304,-3.739,-3.7445,-3.7554,-3.7591,-3.7576,-3.7755,-3.7814,-3.7943,-3.797,-3.8009,-3.8035,-3.8007,-3.8129,-3.814,-3.815,-3.8188,-3.8203,-3.8029,-3.8029,-3.8029,-3.8029,0,-3.7118,-3.7203,-3.726,-3.7366,-3.7426,-3.7511,-3.7568,-3.7624,-3.7645,-3.7689,-3.7801,-3.7872,-3.7969,-3.8001,-3.8023,-3.8135,-3.8124,-3.8119,-3.8091,-3.8164,-3.8201,-3.8216,-3.8031,-3.8031,-3.803,-3.803,0,0,-3.7201,-3.7331,-3.7351,-3.74,-3.7499,-3.7566,-3.7653,-3.7747,-3.7794,-3.787,-3.7945,-3.8065,-3.8061,-3.8117,-3.8146,-3.8203,-3.8287,-3.819,-3.8193,-3.8206,-3.8415,-3.8418,-3.8435,-3.8294,-3.8297,-3.8299,-3.8408,0,-3.7299,-3.7454,-3.7496,-3.7629,-3.7708,-3.7733,-3.7809,-3.7879,-3.7923,-3.7997,-3.8047,-3.8131,-3.8119,-3.8153,-3.821,-3.8264,-3.8329,-3.8257,-3.8365,-3.8368,-3.8342,-3.8454,-3.8458,-3.8556,-3.8423,-3.8425,-3.8427,0,-3.7432,-3.751,-3.765,-3.7741,-3.7776,-3.7843,-3.7934,-3.8005,-3.8085,-3.8113,-3.8177,-3.8201,-3.8294,-3.8262,-3.8392,-3.8342,-3.8389,-3.8423,-3.8428,-3.8439,-3.8401,-3.8468,-3.8589,-3.8603,-3.845,-3.8448,-3.8447,0,-3.7479,-3.762,-3.7722,-3.7763,-3.7871,-3.7918,-3.7965,-3.8043,-3.8098,-3.8177,-3.8213,-3.8303,-3.8352,-3.8421,-3.8469,-3.8442,-3.8596,-3.8567,-3.8622,-3.8621,-3.8653,-3.865,-3.8782,-3.8684,-3.8683,-3.8683,-3.8683,0,-3.7583,-3.7668,-3.7745,-3.7807,-3.7904,-3.7953,-3.8047,-3.8095,-3.8165,-3.8238,-3.8266,-3.8334,-3.8394,-3.8471,-3.851,-3.8612,-3.8634,-3.866,-3.8669,-3.8657,-3.8654,-3.8688,-3.8683,-3.8687,-3.8686,-3.8685,-3.8685,0,-3.7651,-3.7706,-3.7819,-3.7913,-3.7938,-3.8005,-3.8086,-3.8148,-3.8194,-3.8287,-3.8312,-3.8383,-3.8476,-3.8531,-3.8648,-3.8674,-3.8787,-3.8794,-3.876,-3.8764,-3.8815,-3.881,-3.8974,-3.8999,-3.8883,-3.8884,-3.8885,0,-3.7713,-3.7779,-3.788,-3.7931,-3.7979,-3.8061,-3.8117,-3.8168,-3.8225,-3.8323,-3.8374,-3.8468,-3.8546,-3.8693,-3.8756,-3.8846,-3.8854,-3.8906,-3.8868,-3.8855,-3.8856,-3.8851,-3.8858,-3.8912,-3.8913,-3.8914,-3.8914,0,-3.7818,-3.7843,-3.7922,-3.8011,-3.8077,-3.815,-3.8223,-3.8263,-3.8327,-3.839,-3.8485,-3.8545,-3.8665,-3.8758,-3.8854,-3.8904,-3.8921,-3.8926,-3.8944,-3.8932,-3.891,-3.8923,-3.8777,-3.8922,-3.8921,-3.8921,-3.892,-3.892,-3.7886,-3.7946,-3.8027,-3.8114,-3.8175,-3.8242,-3.8306,-3.836,-3.844,-3.8541,-3.8567,-3.8666,-3.8747,-3.8877,-3.8929,-3.9009,-3.9001,-3.9026,-3.9032,-3.9038,-3.9039,-3.8897,-3.9026,-3.9026,-3.9026,-3.9026,-3.9026,0,-3.7993,-3.8046,-3.8126,-3.8227,-3.8297,-3.8306,-3.8388,-3.8445,-3.8532,-3.8606,-3.8682,-3.8792,-3.8883,-3.8954,-3.9048,-3.9098,-3.9108,-3.9121,-3.9118,-3.9129,-3.9041,-3.9016,-3.9111,-3.9111,-3.9111,-3.9111,-3.9111,-3.9111,-3.8056,-3.8159,-3.8193,-3.8326,-3.8379,-3.8477,-3.8523,-3.8586,-3.8645,-3.8766,-3.8842,-3.8887,-3.8961,-3.906,-3.9145,-3.9164,-3.9197,-3.9209,-3.9228,-3.9144,-3.9135,-3.9126,-3.9103,-3.9215,-3.9215,-3.931,-3.9311,-3.9312]},{"header":{"parameterUnit":"m.s-1","parameterCategory":1,"la1":30.2991,"la2":30.254,"lo1":-89.0895,"lo2":-89.0444,"dy":0.0017,"dx":0.0017,"nx":28,"ny":28,"refTime":"2025-04-18T03:00:00:Z","depth":0,"parameterNumber":3,"parameterNumberName":"V-component_of_WINDS"},"data":[0,0,0,0,0,0,0,0,0,0,0,0,0,0,0,0,0,0,0,0,0,0,0,0,0,0,0,0,0,0,0,0,0,0,0,0,0,0,0,0,0,0,0,0,0,0,0,0,0,0,0,0,0,0,0,0,0,0,3.6175,3.6176,0,3.6233,3.6234,3.6235,3.6232,3.6231,3.623,3.623,3.6289,3.6291,3.6293,0,0,0,0,0,0,0,0,0,0,0,0,0,3.6063,3.6065,3.6175,3.6176,3.6177,3.6233,3.6234,3.6235,3.6232,3.6231,3.623,3.6229,3.6288,3.6291,3.6294,0,0,0,0,0,0,0,0,0,0,0,0,0,3.6115,3.6066,3.6175,3.6182,3.6183,3.6233,3.6234,3.6235,3.6232,3.6231,3.623,3.6229,3.6287,3.629,3.6294,3.634,0,0,3.6305,3.6306,0,0,0,0,0,0,0,0,3.6112,3.612,3.618,3.6182,3.6183,3.6224,3.6216,3.627,3.6233,3.6214,3.623,3.6228,3.6268,3.6273,3.6287,3.6343,3.6346,3.6305,3.6307,3.6309,3.631,0,0,0,0,0,0,0,3.6109,3.6117,3.6198,3.6181,3.6183,3.6183,3.6189,3.6226,3.6247,3.6215,3.6215,3.6222,3.6269,3.6283,3.6288,3.6347,3.6305,3.6308,3.631,3.6312,3.6446,3.6448,0,0,0,0,0,0,3.6104,3.6114,3.6196,3.62,3.6144,3.6186,3.6193,3.6212,3.6247,3.6251,3.6223,3.6222,3.6278,3.6284,3.629,3.6348,3.6309,3.6312,3.6314,3.6445,3.6447,3.6448,0,0,0,0,0,0,3.6101,3.6111,3.6194,3.6157,3.6168,3.6189,3.6211,3.6214,3.6229,3.6253,3.6256,3.6234,3.6277,3.6285,3.6329,3.635,3.6313,3.6317,3.6443,3.6445,3.6448,3.6463,0,0,0,0,0,0,3.6098,3.611,3.6127,3.6157,3.617,3.6231,3.6212,3.6216,3.6235,3.6234,3.6264,3.6268,3.6277,3.6323,3.6332,3.6354,3.6319,3.6441,3.6444,3.6447,3.6461,3.6466,3.647,0,0,0,0,0,3.6094,3.6129,3.6128,3.6138,3.6192,3.6232,3.6239,3.6249,3.6236,3.6255,3.6271,3.6267,3.6347,3.6328,3.6338,3.6361,3.644,3.6443,3.6447,3.6459,3.6465,3.647,0,0,0,0,0,0,3.61,3.6133,3.6133,3.6178,3.6203,3.6231,3.6254,3.6254,3.6282,3.628,3.6291,3.6298,3.6341,3.6356,3.6334,3.6409,3.6392,3.6397,3.6398,3.6404,3.6408,3.6404,3.6322,0,0,0,0,0,3.6107,3.6137,3.6164,3.6202,3.6214,3.6232,3.625,3.6256,3.6281,3.6291,3.631,3.6335,3.6366,3.6386,3.6415,3.6464,3.6471,3.6485,3.6489,3.6493,3.6497,3.6526,3.6533,3.6459,3.6459,3.6459,0,0,3.6121,3.6143,3.6161,3.6204,3.6223,3.6254,3.6241,3.6274,3.6297,3.6296,3.6338,3.6353,3.6382,3.6429,3.645,3.6442,3.652,3.6497,3.65,3.6502,3.653,3.6537,3.6543,3.6461,3.6461,3.6461,0,0,3.6163,3.6182,3.6217,3.6237,3.6267,3.6279,3.6287,3.6317,3.6327,3.637,3.637,3.6399,3.6451,3.6472,3.6489,3.6542,3.654,3.6551,3.6575,3.6602,3.6608,3.6613,3.6633,3.664,3.6556,3.6556,3.6556,0,3.6177,3.6224,3.6234,3.6268,3.6288,3.6289,3.6325,3.6344,3.6382,3.6395,3.6386,3.6453,3.6472,3.6525,3.6538,3.6552,3.6562,3.6547,3.6606,3.6612,3.6617,3.6636,3.6643,3.6557,3.6557,3.6557,3.6557,0,3.624,3.6272,3.6297,3.6334,3.6356,3.6391,3.6407,3.6429,3.6433,3.6447,3.6491,3.6515,3.655,3.6563,3.6567,3.6617,3.6611,3.6604,3.6587,3.6625,3.6643,3.665,3.6559,3.6558,3.6558,3.6558,0,0,3.6286,3.633,3.6339,3.6356,3.6391,3.6416,3.6452,3.6487,3.6505,3.6532,3.6563,3.6608,3.6603,3.6623,3.663,3.6654,3.6696,3.6644,3.6645,3.6653,3.6753,3.6758,3.6766,3.6695,3.6697,3.6698,3.6751,0,3.6331,3.6394,3.6405,3.646,3.6491,3.6494,3.6525,3.655,3.6564,3.6593,3.6609,3.6642,3.6631,3.6644,3.6668,3.6685,3.6716,3.6682,3.6724,3.6726,3.6717,3.6775,3.678,3.6829,3.6758,3.6759,3.676,0,3.6392,3.6421,3.6479,3.6511,3.6525,3.6552,3.6586,3.6614,3.6643,3.6652,3.6675,3.668,3.6718,3.67,3.6753,3.673,3.6748,3.676,3.6762,3.6766,3.6745,3.6781,3.6845,3.6852,3.6771,3.677,3.6769,0,3.6421,3.6474,3.6516,3.6531,3.6569,3.6589,3.6606,3.6634,3.6655,3.6685,3.6699,3.6733,3.6751,3.6778,3.6793,3.6778,3.6845,3.6828,3.6854,3.6854,3.6868,3.6867,3.6935,3.688,3.688,3.6879,3.6879,0,3.647,3.6506,3.653,3.6556,3.6596,3.661,3.665,3.6666,3.6692,3.6721,3.6726,3.6754,3.6772,3.6803,3.6815,3.6858,3.6866,3.6875,3.6877,3.6874,3.6873,3.6886,3.6883,3.6881,3.6881,3.6881,3.688,0,3.6508,3.6526,3.6572,3.6605,3.6614,3.6642,3.6671,3.6697,3.6712,3.675,3.6759,3.6783,3.682,3.6838,3.6883,3.6891,3.694,3.6941,3.693,3.6931,3.6957,3.6955,3.7036,3.7048,3.6985,3.6985,3.6986,0,3.6538,3.6566,3.6602,3.6623,3.664,3.6673,3.6695,3.671,3.6733,3.677,3.6791,3.6829,3.6859,3.6918,3.694,3.6975,3.6977,3.7003,3.6982,3.6979,3.6978,3.6976,3.6979,3.7007,3.7007,3.7008,3.7008,0,3.6591,3.6599,3.663,3.6665,3.6691,3.6719,3.6746,3.6763,3.6783,3.6809,3.6847,3.6871,3.6918,3.6956,3.6993,3.7011,3.7014,3.7015,3.7023,3.702,3.7013,3.7018,3.6941,3.7013,3.7012,3.7012,3.7012,3.7011,3.6626,3.6651,3.6681,3.6716,3.6739,3.6765,3.6792,3.6811,3.6843,3.6883,3.689,3.6931,3.6962,3.7012,3.7032,3.7065,3.7059,3.707,3.7073,3.7076,3.7078,3.7008,3.7072,3.7072,3.7072,3.7072,3.7071,0,3.6679,3.6699,3.6731,3.677,3.6798,3.6799,3.683,3.6854,3.689,3.6918,3.6948,3.6993,3.703,3.7056,3.7094,3.7115,3.7117,3.7125,3.7123,3.7128,3.7081,3.707,3.7122,3.7122,3.7122,3.7122,3.7122,3.7122,3.671,3.6753,3.6765,3.682,3.684,3.688,3.6898,3.6923,3.6946,3.6996,3.7027,3.7043,3.7071,3.7111,3.7146,3.7153,3.7167,3.7174,3.7181,3.7136,3.7131,3.7126,3.7116,3.7177,3.7177,3.7225,3.7226,3.7226]}]]